Location: Brookfield Center
(41.2406°N, 80.5579°W)
Time: 21:28:24
(UTC+00:00)

COSMOS 2428 - Pass Details

Date: 18 January 2020
Orbit: 844 x 858 km, 70.9° (Epoch: 18 February)

Event Time Altitude Azimuth Distance (km) Brightness Sun altitude
Rises 00:35:57 0° 326° (NW) 3,438 6.2 -25.2°
Reaches altitude 10° 00:38:39 10° 317° (NW) 2,498 5.6 -25.7°
Maximum altitude 00:43:38 32° 256° (WSW) 1,447 4.5 -26.6°
Drops below altitude 10° 00:48:36 10° 196° (SSW) 2,481 5.3 -27.6°
Sets 00:51:16 0° 186° (S) 3,412 6.0 -28.1°
